Regional Weather Roundup
Issued by NWS

Home | Current Version | Previous Version | Text Only | Print | Product List | Glossary On
Versions: 1 2 3 4 5 6 7 8 9 10 11 12 13 14 15 16 17 18 19 20 21 22 23 24 25 26 27 28
000
ASUS45 KREV 221510
RWRNV
NEVADA REGIONAL WEATHER ROUNDUP
NATIONAL WEATHER SERVICE RENO NV
800 AM PDT SUN OCT 22 2017

NOTE: "FAIR" INDICATES FEW OR NO CLOUDS BELOW 12,000 FEET WITH NO
SIGNIFICANT WEATHER AND/OR OBSTRUCTIONS TO VISIBILITY.

NVZ001-003-004-221600-
WESTERN NEVADA

CITY           SKY/WX    TMP DP  RH WIND       PRES   REMARKS
RENO           PTCLDY    38  34  85 CALM      30.43R
CARSON CITY    FAIR      34  32  93 CALM      30.43R
MINDEN         FAIR      27  25  93 E6        30.43R
SLIDE MTN        N/A     41  16  36 N5          N/A
FALLON         CLEAR     38  25  59 S7        30.39R
LOVELOCK       CLEAR     31  24  75 NE3       30.39R
HAWTHORNE      CLEAR     41  28  60 CALM      30.41R
$$

NVZ002-CAZ072-073-221600-
NORTHERN AND CENTRAL SIERRA

CITY           SKY/WX    TMP DP  RH WIND       PRES   REMARKS
S. LAKE TAHOE  CLEAR     28  25  88 S3        30.47R
TRUCKEE        FOG       23  21  93 CALM      30.47R VSB 1/2
SQUAW VLY 8000 NOT AVBL
BLUE CANYON    CLEAR     51  37  58 NE3       30.44R
MAMMOTH LAKES  FAIR      23  19  86 CALM      30.53R
BRIDGEPORT     FAIR      23  19  85 CALM      30.48R
$$

NVZ030-031-036-221600-
NORTHERN NEVADA

CITY           SKY/WX    TMP DP  RH WIND       PRES   REMARKS
ELKO           PTCLDY    33  26  75 W3        30.39R
WINNEMUCCA     PTCLDY    46  34  62 S12       30.37R
WENDOVER       MOSUNNY   40  21  46 NE3       30.36R
$$

NVZ035-037-221600-
CENTRAL NEVADA

CITY           SKY/WX    TMP DP  RH WIND       PRES   REMARKS
ELY            MOSUNNY   28  20  71 S10       30.46R
EUREKA           N/A     35  26  69 S6        30.44R
$$

NVZ013-014-221600-
SOUTH CENTRAL NEVADA

CITY           SKY/WX    TMP DP  RH WIND       PRES   REMARKS
TONOPAH        PTCLDY    36  23  59 N7        30.46R
$$

NVZ017-020-022-221600-
SOUTHERN NEVADA

CITY           SKY/WX    TMP DP  RH WIND       PRES   REMARKS
LAS VEGAS      SUNNY     60  19  20 CALM      30.31R
N. LAS VEGAS   SUNNY     59  22  24 W3        30.31R
NELLIS AFB     SUNNY     53  15  22 CALM      30.31R
HENDERSON      SUNNY     55  20  25 S5        30.34R
MERCURY        SUNNY     52  17  25 SE3       30.35R
$$




USA.gov is the U.S. government's official web portal to all federal, state and local government web resources and services.